[[{"header":{"parameterUnit":"m.s-1","parameterCategory":1,"la1":30.2991,"la2":30.254,"lo1":-89.0895,"lo2":-89.0444,"dy":0.0017,"dx":0.0017,"nx":28,"ny":28,"refTime":"2024-02-22T03:00:00:Z","depth":0,"parameterNumber":2,"parameterNumberName":"U-component_of_WINDS"},"data":[0,0,0,0,0,0,0,0,0,0,0,0,0,0,0,0,0,0,0,0,0,0,0,0,0,0,0,0,0,0,0,0,0,0,0,0,0,0,0,0,0,0,0,0,0,0,0,0,0,0,0,0,0,0,0,0,0,0,2.9309,2.931,0,2.9353,2.9354,2.9354,2.9325,2.9324,2.9322,2.9321,2.9366,2.9369,2.9371,0,0,0,0,0,0,0,0,0,0,0,0,0,2.9201,2.9203,2.9309,2.931,2.931,2.9353,2.9354,2.9354,2.9325,2.9323,2.9322,2.932,2.9365,2.9368,2.9371,0,0,0,0,0,0,0,0,0,0,0,0,0,2.9247,2.9203,2.9309,2.9301,2.93,2.9353,2.9354,2.9355,2.9325,2.9323,2.9321,2.932,2.9364,2.9368,2.9372,2.9435,0,0,2.9383,2.9384,0,0,0,0,0,0,0,0,2.9244,2.9251,2.9301,2.9301,2.9301,2.9332,2.9332,2.9381,2.9326,2.9316,2.9321,2.9319,2.9356,2.936,2.9373,2.9437,2.9439,2.9383,2.9385,2.9387,2.9388,0,0,0,0,0,0,0,2.9241,2.9249,2.9327,2.9302,2.9302,2.9295,2.93,2.9341,2.9347,2.9317,2.9315,2.932,2.9356,2.937,2.9374,2.9439,2.9383,2.9386,2.9389,2.939,2.956,2.9562,0,0,0,0,0,0,2.9238,2.9246,2.9325,2.9328,2.9267,2.9299,2.9304,2.9324,2.9346,2.9348,2.9322,2.9319,2.9364,2.937,2.9376,2.9453,2.9387,2.939,2.9393,2.9558,2.9561,2.9563,0,0,0,0,0,0,2.9236,2.9246,2.9323,2.9286,2.9296,2.9303,2.9326,2.9326,2.934,2.935,2.9351,2.9335,2.9363,2.937,2.9421,2.9454,2.9392,2.9395,2.9555,2.9559,2.9562,2.9607,0,0,0,0,0,0,2.9233,2.9245,2.9269,2.9287,2.9298,2.9368,2.9328,2.9328,2.9346,2.9342,2.9363,2.9364,2.9362,2.9416,2.9425,2.9458,2.9398,2.9552,2.9557,2.9561,2.9603,2.9612,2.9619,0,0,0,0,0,2.9229,2.9279,2.927,2.928,2.9328,2.937,2.9376,2.9372,2.9349,2.9373,2.938,2.9364,2.9449,2.9421,2.9431,2.9466,2.955,2.9555,2.956,2.9599,2.961,2.9619,0,0,0,0,0,0,2.9263,2.9281,2.9271,2.9328,2.9348,2.9365,2.9395,2.9383,2.941,2.9405,2.9399,2.9404,2.9458,2.9466,2.9435,2.953,2.9496,2.9503,2.9522,2.9532,2.9541,2.9538,2.9401,0,0,0,0,0,2.9277,2.931,2.9324,2.9373,2.9383,2.9388,2.9406,2.9401,2.9421,2.9429,2.944,2.946,2.9492,2.9512,2.9541,2.9604,2.9609,2.9633,2.9641,2.9648,2.9655,2.9691,2.9702,2.958,2.958,2.958,0,0,2.9307,2.9321,2.9341,2.938,2.9395,2.9429,2.9395,2.9432,2.9458,2.9435,2.9484,2.9493,2.9515,2.9572,2.9598,2.9581,2.969,2.9655,2.966,2.9663,2.9697,2.9709,2.9719,2.9584,2.9583,2.9582,0,0,2.9379,2.9392,2.9435,2.9451,2.9474,2.9477,2.9487,2.9506,2.9512,2.9561,2.9545,2.9576,2.9629,2.9647,2.9662,2.9744,2.973,2.9753,2.9797,2.9832,2.9842,2.985,2.9881,2.9892,2.976,2.976,2.976,0,2.9413,2.9464,2.9459,2.9499,2.9517,2.9498,2.9543,2.9558,2.959,2.9603,2.9584,2.9653,2.9666,2.9729,2.9749,2.9761,2.9774,2.9751,2.9841,2.9849,2.9857,2.9887,2.9898,2.9763,2.9762,2.9762,2.9762,0,2.9505,2.9541,2.9574,2.9606,2.9627,2.9669,2.9672,2.9694,2.9689,2.9694,2.9746,2.9761,2.9795,2.9809,2.9803,2.9871,2.9861,2.9841,2.9808,2.9872,2.99,2.9911,2.9767,2.9766,2.9765,2.9764,0,0,2.9599,2.9629,2.9641,2.9657,2.9681,2.9709,2.9751,2.9784,2.9805,2.9827,2.9863,2.991,2.9894,2.9912,2.9908,2.9939,3.0005,2.9916,2.9916,2.9933,3.0083,3.0099,3.0111,2.9995,2.9997,2.9999,3.0082,0,2.9674,2.9747,2.9745,2.9813,2.9848,2.9831,2.9868,2.9888,2.9895,2.9925,2.9932,2.9966,2.994,2.9952,2.9981,2.999,3.0035,2.9984,3.003,3.0032,3.0026,3.0126,3.0141,3.0219,3.0092,3.0094,3.0095,0,2.977,2.9797,2.987,2.9892,2.9906,2.9939,2.9971,3.0,3.0022,3.0025,3.0047,3.0038,3.0082,3.0047,3.0108,3.0074,3.0092,3.01,3.0103,3.0108,3.0068,3.0135,3.0243,3.0255,3.0112,3.0111,3.011,0,2.9834,2.9888,2.9939,2.9952,2.9979,3.0003,3.0015,3.0036,3.0057,3.0084,3.0098,3.013,3.0148,3.0174,3.0175,3.0149,3.0238,3.0202,3.0242,3.0243,3.0262,3.0261,3.0377,3.0272,3.0272,3.0272,3.0272,0,2.9918,2.9963,2.9968,3.0,3.0051,3.0048,3.0099,3.0109,3.0128,3.0162,3.0149,3.0181,3.0181,3.0214,3.0215,3.0267,3.0274,3.0279,3.0279,3.0281,3.0281,3.0294,3.0289,3.0275,3.0274,3.0274,3.0273,0,2.9998,3.0003,3.0057,3.0079,3.0085,3.0122,3.0141,3.0171,3.0177,3.022,3.023,3.024,3.0278,3.0282,3.0326,3.0327,3.0391,3.0384,3.0383,3.0383,3.0424,3.042,3.0553,3.0571,3.0453,3.0454,3.0455,0,3.0052,3.0086,3.0112,3.0134,3.0148,3.0183,3.0205,3.0205,3.0228,3.0258,3.0286,3.0323,3.0353,3.0415,3.0427,3.0461,3.0456,3.05,3.0461,3.0463,3.0459,3.0458,3.0462,3.0508,3.0509,3.051,3.0511,0,3.0148,3.0149,3.0181,3.0215,3.0241,3.0268,3.0292,3.0311,3.0314,3.0341,3.0381,3.0404,3.045,3.0488,3.0523,3.0536,3.0525,3.0523,3.0535,3.0538,3.0537,3.054,3.0405,3.052,3.052,3.0519,3.0518,3.0518,3.0217,3.0249,3.0272,3.0309,3.0328,3.0352,3.0382,3.0393,3.0426,3.0464,3.0461,3.0506,3.053,3.0575,3.0591,3.0626,3.0611,3.0628,3.0632,3.0636,3.0642,3.053,3.0632,3.0632,3.0632,3.0631,3.0631,0,3.0314,3.0329,3.0363,3.0399,3.0428,3.0415,3.0443,3.0468,3.0508,3.0531,3.0561,3.0608,3.0645,3.066,3.0697,3.0723,3.0719,3.0733,3.0731,3.0735,3.0652,3.0639,3.0735,3.0735,3.0735,3.0735,3.0735,3.0735,3.0369,3.0421,3.0426,3.0488,3.0503,3.0547,3.0564,3.0586,3.0605,3.0658,3.069,3.0699,3.072,3.0758,3.0793,3.0796,3.0811,3.0827,3.0829,3.0751,3.074,3.073,3.0719,3.083,3.083,3.0909,3.091,3.0911]},{"header":{"parameterUnit":"m.s-1","parameterCategory":1,"la1":30.2991,"la2":30.254,"lo1":-89.0895,"lo2":-89.0444,"dy":0.0017,"dx":0.0017,"nx":28,"ny":28,"refTime":"2024-02-22T03:00:00:Z","depth":0,"parameterNumber":3,"parameterNumberName":"V-component_of_WINDS"},"data":[0,0,0,0,0,0,0,0,0,0,0,0,0,0,0,0,0,0,0,0,0,0,0,0,0,0,0,0,0,0,0,0,0,0,0,0,0,0,0,0,0,0,0,0,0,0,0,0,0,0,0,0,0,0,0,0,0,0,-3.4306,-3.4307,0,-3.4338,-3.4338,-3.4338,-3.4332,-3.4332,-3.4331,-3.4331,-3.4364,-3.4365,-3.4367,0,0,0,0,0,0,0,0,0,0,0,0,0,-3.4243,-3.4245,-3.4306,-3.4307,-3.4307,-3.4338,-3.4338,-3.4338,-3.4332,-3.4332,-3.4331,-3.433,-3.4364,-3.4365,-3.4367,0,0,0,0,0,0,0,0,0,0,0,0,0,-3.4272,-3.4245,-3.4306,-3.4308,-3.4308,-3.4337,-3.4338,-3.4339,-3.4332,-3.4332,-3.4331,-3.433,-3.4363,-3.4365,-3.4367,-3.4398,0,0,-3.4374,-3.4375,0,0,0,0,0,0,0,0,-3.4271,-3.4275,-3.4307,-3.4308,-3.4308,-3.433,-3.4328,-3.4358,-3.4333,-3.4323,-3.4331,-3.433,-3.4354,-3.4356,-3.4364,-3.4399,-3.4401,-3.4374,-3.4375,-3.4376,-3.4377,0,0,0,0,0,0,0,-3.4269,-3.4273,-3.4319,-3.4308,-3.4308,-3.4308,-3.4311,-3.4334,-3.4343,-3.4324,-3.4324,-3.4327,-3.4354,-3.4362,-3.4365,-3.4401,-3.4374,-3.4376,-3.4377,-3.4378,-3.4464,-3.4465,0,0,0,0,0,0,-3.4266,-3.4272,-3.4318,-3.432,-3.4287,-3.4309,-3.4313,-3.4324,-3.4343,-3.4345,-3.4328,-3.4327,-3.4359,-3.4362,-3.4366,-3.4404,-3.4376,-3.4378,-3.4379,-3.4463,-3.4465,-3.4466,0,0,0,0,0,0,-3.4265,-3.427,-3.4316,-3.4296,-3.4301,-3.4311,-3.4324,-3.4325,-3.4333,-3.4346,-3.4347,-3.4335,-3.4358,-3.4363,-3.439,-3.4405,-3.4379,-3.4381,-3.4462,-3.4464,-3.4465,-3.448,0,0,0,0,0,0,-3.4263,-3.427,-3.4281,-3.4296,-3.4303,-3.4339,-3.4325,-3.4326,-3.4337,-3.4336,-3.4353,-3.4354,-3.4358,-3.4387,-3.4392,-3.4408,-3.4383,-3.4461,-3.4463,-3.4465,-3.4478,-3.4481,-3.4484,0,0,0,0,0,-3.4261,-3.4283,-3.4281,-3.4287,-3.4316,-3.434,-3.4344,-3.4347,-3.4338,-3.435,-3.4358,-3.4354,-3.4402,-3.439,-3.4396,-3.4412,-3.446,-3.4462,-3.4464,-3.4476,-3.4481,-3.4484,0,0,0,0,0,0,-3.427,-3.4285,-3.4283,-3.4311,-3.4325,-3.4339,-3.4354,-3.4352,-3.4368,-3.4366,-3.437,-3.4374,-3.4402,-3.4409,-3.4395,-3.4443,-3.443,-3.4434,-3.4437,-3.4441,-3.4445,-3.4443,-3.4384,0,0,0,0,0,-3.4275,-3.4292,-3.4305,-3.4329,-3.4336,-3.4344,-3.4354,-3.4356,-3.4369,-3.4375,-3.4385,-3.4399,-3.4418,-3.443,-3.4447,-3.4479,-3.4483,-3.4493,-3.4496,-3.4499,-3.4502,-3.4521,-3.4526,-3.4473,-3.4473,-3.4473,0,0,-3.4286,-3.4297,-3.4308,-3.4331,-3.4342,-3.436,-3.4348,-3.4368,-3.4383,-3.4378,-3.4404,-3.4412,-3.4429,-3.4458,-3.4472,-3.4466,-3.4518,-3.4502,-3.4504,-3.4506,-3.4524,-3.4529,-3.4534,-3.4475,-3.4474,-3.4474,0,0,-3.4317,-3.4326,-3.4347,-3.4358,-3.4374,-3.4379,-3.4384,-3.4399,-3.4405,-3.4431,-3.4428,-3.4446,-3.4477,-3.4489,-3.45,-3.4536,-3.4533,-3.4542,-3.4559,-3.4578,-3.4582,-3.4586,-3.46,-3.4605,-3.4545,-3.4545,-3.4545,0,-3.4329,-3.4356,-3.4359,-3.4379,-3.4391,-3.4387,-3.441,-3.442,-3.4441,-3.4449,-3.4442,-3.4482,-3.4493,-3.4526,-3.4535,-3.4543,-3.455,-3.454,-3.4581,-3.4585,-3.4588,-3.4602,-3.4607,-3.4546,-3.4546,-3.4545,-3.4545,0,-3.4371,-3.439,-3.4406,-3.4426,-3.4439,-3.446,-3.4467,-3.448,-3.4481,-3.4487,-3.4515,-3.4528,-3.4549,-3.4556,-3.4557,-3.459,-3.4586,-3.458,-3.4567,-3.4594,-3.4607,-3.4612,-3.4547,-3.4547,-3.4546,-3.4546,0,0,-3.4408,-3.443,-3.4436,-3.4445,-3.4463,-3.4479,-3.4501,-3.4521,-3.4532,-3.4547,-3.4567,-3.4594,-3.4589,-3.46,-3.4602,-3.4618,-3.4648,-3.461,-3.4611,-3.4618,-3.4688,-3.4693,-3.4699,-3.4646,-3.4647,-3.4648,-3.4687,0,-3.444,-3.4479,-3.4482,-3.4517,-3.4536,-3.4533,-3.4553,-3.4566,-3.4573,-3.4591,-3.4599,-3.4618,-3.4609,-3.4616,-3.4632,-3.4641,-3.4662,-3.4638,-3.4666,-3.4667,-3.4663,-3.4705,-3.4711,-3.4747,-3.4692,-3.4692,-3.4693,0,-3.4483,-3.45,-3.4536,-3.4553,-3.4561,-3.4578,-3.4598,-3.4614,-3.463,-3.4634,-3.4648,-3.4648,-3.4672,-3.4658,-3.4692,-3.4675,-3.4687,-3.4693,-3.4695,-3.4698,-3.4682,-3.4711,-3.4758,-3.4764,-3.4701,-3.47,-3.47,0,-3.4508,-3.4539,-3.4566,-3.4574,-3.4593,-3.4606,-3.4615,-3.463,-3.4642,-3.466,-3.4668,-3.4688,-3.4699,-3.4715,-3.4722,-3.471,-3.4756,-3.4741,-3.4761,-3.4761,-3.4771,-3.4771,-3.4821,-3.4777,-3.4777,-3.4777,-3.4776,0,-3.4545,-3.4568,-3.4577,-3.4593,-3.462,-3.4624,-3.465,-3.4658,-3.4672,-3.469,-3.469,-3.4707,-3.4714,-3.4733,-3.4738,-3.4767,-3.4771,-3.4776,-3.4778,-3.4777,-3.4777,-3.4785,-3.4783,-3.4778,-3.4778,-3.4777,-3.4777,0,-3.4577,-3.4584,-3.4613,-3.4629,-3.4634,-3.4653,-3.4667,-3.4683,-3.469,-3.4714,-3.472,-3.4731,-3.4754,-3.4762,-3.4789,-3.4793,-3.4826,-3.4825,-3.4821,-3.4821,-3.4841,-3.4839,-3.49,-3.4909,-3.4857,-3.4857,-3.4858,0,-3.46,-3.4618,-3.4636,-3.4649,-3.4658,-3.4678,-3.4691,-3.4696,-3.471,-3.473,-3.4744,-3.4767,-3.4785,-3.4822,-3.4833,-3.4855,-3.4855,-3.4874,-3.4858,-3.4857,-3.4857,-3.4856,-3.4859,-3.4878,-3.4878,-3.4879,-3.4879,0,-3.4642,-3.4645,-3.4663,-3.4683,-3.4698,-3.4714,-3.473,-3.474,-3.4748,-3.4764,-3.4787,-3.4801,-3.483,-3.4853,-3.4875,-3.4885,-3.4884,-3.4884,-3.489,-3.489,-3.4888,-3.4891,-3.483,-3.4883,-3.4883,-3.4882,-3.4882,-3.4882,-3.4671,-3.4687,-3.4703,-3.4724,-3.4736,-3.4751,-3.4768,-3.4777,-3.4796,-3.482,-3.4822,-3.4848,-3.4865,-3.4894,-3.4906,-3.4927,-3.4921,-3.4929,-3.4932,-3.4934,-3.4936,-3.4884,-3.493,-3.493,-3.493,-3.493,-3.493,0,-3.4714,-3.4724,-3.4743,-3.4765,-3.4782,-3.4779,-3.4796,-3.4811,-3.4833,-3.4849,-3.4867,-3.4895,-3.4918,-3.4931,-3.4954,-3.4968,-3.4968,-3.4974,-3.4974,-3.4976,-3.4939,-3.4932,-3.4974,-3.4974,-3.4974,-3.4974,-3.4974,-3.4974,-3.4738,-3.4765,-3.477,-3.4805,-3.4815,-3.484,-3.485,-3.4865,-3.4877,-3.4908,-3.4927,-3.4935,-3.4951,-3.4975,-3.4996,-3.5,-3.5009,-3.5015,-3.5019,-3.4983,-3.4979,-3.4975,-3.4968,-3.5017,-3.5017,-3.5055,-3.5055,-3.5055]}]]